Regional Weather Roundup
Issued by NWS

Home | Current Version | Previous Version | Graphics & Text | Print | Product List | Glossary On
Versions: 1 2 3 4 5 6 7 8 9 10 11 12 13 14 15 16 17 18 19 20 21 22 23 24 25 26 27 28 29 30 31 32 33 34 35 36 37 38 39 40 41 42 43 44 45 46 47 48 49 50
000
ASUS44 KMEG 230510
RWRTN
TENNESSEE HOURLY STATE WEATHER ROUNDUP
NATIONAL WEATHER SERVICE MEMPHIS TN
1200 AM CDT MON APR 23 2018

TNZ002-004-019-021-049-052-054-088>092-230600-
WEST TENNESSEE

CITY           SKY/WX    TMP DP  RH WIND       PRES   REMARKS
MEMPHIS INTL   CLOUDY    61  61 100 VRB5      29.81F
NWS MEMPHIS      N/A     60 N/A N/A MISG        N/A
JACKSON        LGT RAIN  58  58 100 NE10      29.77F
DYERSBURG      LGT RAIN  58  57  97 NE10      29.82F
SOMERVILLE     CLOUDY    59  59 100 CALM      29.79F
COVINGTON      CLOUDY    59  59 100 NW6       29.82F
UNION CITY     CLOUDY    57  57 100 NE9       29.82F FOG
BOLIVAR        MOCLDY    59  57  94 SW3       29.80S
PARIS          CLOUDY    57  55  94 NE13G21   29.82F FOG
HUNTINGDON       N/A     57  57 100 VRB6      29.80F FOG
LEXINGTON      CLOUDY    57  57 100 N7        29.75F FOG
SELMER         CLOUDY    57  57 100 NW5       29.76F
SAVANNAH       CLOUDY    59  57  94 W3        29.76S FOG
$$

TNZ008-025-027-028-033-062-065-066-230600-
NORTH MIDDLE TENNESSEE

CITY           SKY/WX    TMP DP  RH WIND       PRES   REMARKS
NASHVILLE      HVY RAIN  58  55  90 E21       29.88F FOG
PORTLAND       MOCLDY    57  55  94 E13G22    29.92F
CLARKSVILLE    RAIN      58  54  86 E20G29    29.87F FOG
SMYRNA         RAIN      57  55  94 E9        29.89F
COOKEVILLE     MOCLDY    57  52  82 E10G16    29.95F
LIVINGSTON     CLOUDY    55  54  94 E8G17     29.98F
GALLATIN       CLOUDY    57  55  94 E10G21    29.96R
CROSSVILLE     LGT RAIN  55  49  80 E13G30    30.01F
ROCKWOOD       CLOUDY    54  52  94 E9G21     30.02F
$$

TNZ061-075-076-078-094-096-097-230600-
SOUTH MIDDLE TENNESSEE

CITY           SKY/WX    TMP DP  RH WIND       PRES   REMARKS
LEWISBURG      CLOUDY    59  55  88 E15G22    29.82F
FAYETTEVILLE   CLOUDY    61  57  88 SE17G23   29.82F
TULLAHOMA      CLOUDY    57  55  94 SE16G25   29.87F
WINCHESTER     CLOUDY    57  55  94 SE13G25   29.88S FOG
MCMINNVILLE    CLOUDY    57  54  88 VRB8G18   29.91F
COLUMBIA       CLOUDY    59  59 100 E21G33    29.78S
SHELBYVILLE    CLOUDY    57  55  94 E15G23    29.86F
$$

TNZ017-018-042-046-047-230600-
NORTHEAST TENNESSEE

CITY           SKY/WX    TMP DP  RH WIND       PRES   REMARKS
TRI CITIES     CLOUDY    60  46  59 E7G16     30.16F
ELIZABETHTON   CLOUDY    61  45  55 VRB7G15   30.17F
$$

TNZ012-013-036-069-073-074-230600-
CENTRAL EAST TENNESSEE

CITY           SKY/WX    TMP DP  RH WIND       PRES   REMARKS
KNOXVILLE      CLOUDY    56  53  90 NE10      30.03F
OAK RIDGE      MOCLDY    56  55  97 NE3       30.06F
DOWNTOWN KNOXV CLOUDY    57  54  88 CALM      30.05F
GATLINBURG     MOCLDY    59  50  72 E9G15     30.03F
MORRISTOWN     MOCLDY    57  50  77 SE15G23   30.09F
JACKSBORO      CLOUDY    55  52  88 NE6       30.10F
$$

TNZ083-085-099-230600-
SOUTHEAST TENNESSEE

CITY           SKY/WX    TMP DP  RH WIND       PRES   REMARKS
CHATTANOOGA    RAIN      58  55  90 VRB6      29.96F FOG
DAYTON         CLOUDY    57  57 100 CALM      30.01F FOG
$$

SKY/WX REPORTED AS FAIR MEANS FEW OR NO CLOUDS BELOW
12 THOUSAND FEET.





USA.gov is the U.S. government's official web portal to all federal, state and local government web resources and services.